BREEZE-M DEB

基本信息
目录编号:
41544
目录名称:
BREEZE-M DEB
国际标识:
2015-075E
轨道中心:
EARTH
物体状态:
在轨
发射日期:
2015-12-13 UTC
轨道信息
数据来源: 国际轨道数据
星历时间: 2026-07-12T21:00:01+0800
半长轴: 40713.516km
偏心率: 0.0320034
轨道倾角: 8.453°
近地点辐角: 175.814°
升交点赤经: 59.196°
平近点角: 184.414°
近地点: 33032.408km
远地点: 35638.35km
周期: 1362.598分钟
每日圈数: 1.056805
详细信息
发射场:
TTMTR
轨道高度:
MEO
数据来源:
AOE Integration Group
参考系:
TEME
时间系统:
UTC
历元类型:
SGP4
2D轨道图
3D轨道图
轨道高度分析图
轨道倾角分析图
轨道综合分析图
查看轨道综合分析图